| time (UTC) | temp F | wind direction | speed MPH | gust MPH | rain 1hr in | rain 24hr in | rain mn in | humidity % | barometer mb |
| 20260510203204 | 85 | 134 | 10.0 | 14.0 | 0.00 | 0.01 | 0.01 | 66 | 1014.2 |
| 20260510201704 | 85 | 122 | 6.0 | 10.0 | 0.00 | 0.01 | 0.01 | 62 | 1014.2 |
| 20260510201204 | 85 | 170 | 7.0 | 10.0 | 0.00 | 0.01 | 0.01 | 61 | 1014.2 |
| 20260510200704 | 85 | 149 | 10.0 | 13.0 | 0.00 | 0.01 | 0.01 | 63 | 1014.2 |
| 20260510200204 | 85 | 147 | 5.0 | 13.0 | 0.00 | 0.01 | 0.01 | 67 | 1014.2 |
| 20260510194204 | 87 | 120 | 9.0 | 13.0 | 0.01 | 0.01 | 0.01 | 75 | 1014.2 |
| 20260510193704 | 87 | 116 | 6.0 | 9.0 | 0.01 | 0.01 | 0.01 | 69 | 1014.2 |
| 20260510193205 | 86 | 128 | 6.0 | 13.0 | 0.01 | 0.01 | 0.01 | 70 | 1014.2 |
| 20260510191704 | 87 | 114 | 8.0 | 12.0 | 0.01 | 0.01 | 0.01 | 79 | 1014.2 |
| 20260510191203 | 87 | 145 | 5.0 | 10.0 | 0.01 | 0.01 | 0.01 | 79 | 1014.5 |
| 20260510190703 | 87 | 111 | 7.0 | 9.0 | 0.01 | 0.01 | 0.01 | 78 | 1015.2 |
| 20260510190203 | 87 | 119 | 9.0 | 13.0 | 0.01 | 0.01 | 0.01 | 76 | 1015.2 |
| 20260510184204 | 87 | 142 | 8.0 | 12.0 | 0.00 | 0.00 | 0.00 | 78 | 1015.2 |
| 20260510183704 | 88 | 155 | 7.0 | 10.0 | 0.00 | 0.00 | 0.00 | 70 | 1015.2 |
| 20260510183203 | 88 | 151 | 7.0 | 12.0 | 0.00 | 0.00 | 0.00 | 70 | 1015.2 |
| 20260510181705 | 88 | 132 | 9.0 | 14.0 | 0.00 | 0.00 | 0.00 | 71 | 1015.2 |
| 20260510181204 | 88 | 108 | 7.0 | 12.0 | 0.00 | 0.00 | 0.00 | 71 | 1015.2 |
| 20260510180704 | 88 | 127 | 6.0 | 12.0 | 0.00 | 0.00 | 0.00 | 70 | 1015.2 |
| 20260510180203 | 88 | 126 | 8.0 | 12.0 | 0.00 | 0.00 | 0.00 | 68 | 1015.2 |
| 20260510174704 | 90 | 117 | 8.0 | 12.0 | 0.00 | 0.00 | 0.00 | 66 | 1015.2 |
| 20260510174203 | 90 | 103 | 7.0 | 12.0 | 0.00 | 0.00 | 0.00 | 65 | 1015.2 |
| 20260510171205 | 94 | 250 | 6.0 | 8.0 | 0.00 | 0.00 | 0.00 | 53 | 1015.8 |
| 20260510170205 | 94 | 90 | 3.0 | 10.0 | 0.00 | 0.00 | 0.00 | 53 | 1016.2 |
| 20260510164704 | 93 | 219 | 6.0 | 9.0 | 0.00 | 0.00 | 0.00 | 55 | 1016.2 |
| 20260510164204 | 93 | 161 | 1.0 | 6.0 | 0.00 | 0.00 | 0.00 | 55 | 1016.2 |
| 20260510163203 | 93 | 260 | 5.0 | 10.0 | 0.00 | 0.00 | 0.00 | 56 | 1016.2 |
| 20260510161704 | 93 | 198 | 6.0 | 9.0 | 0.00 | 0.00 | 0.00 | 55 | 1016.2 |
| 20260510161203 | 93 | 198 | 7.0 | 13.0 | 0.00 | 0.00 | 0.00 | 56 | 1016.2 |
| 20260510160204 | 92 | 257 | 5.0 | 9.0 | 0.00 | 0.00 | 0.00 | 58 | 1016.2 |
| 20260510154703 | 91 | 218 | 7.0 | 10.0 | 0.00 | 0.00 | 0.00 | 61 | 1016.2 |
| 20260510154203 | 91 | 246 | 6.0 | 10.0 | 0.00 | 0.00 | 0.00 | 60 | 1016.2 |
| 20260510153703 | 91 | 244 | 5.0 | 12.0 | 0.00 | 0.00 | 0.00 | 59 | 1016.2 |
| 20260510153204 | 91 | 274 | 6.0 | 12.0 | 0.00 | 0.00 | 0.00 | 59 | 1016.2 |
| 20260510151705 | 91 | 200 | 8.0 | 10.0 | 0.00 | 0.00 | 0.00 | 62 | 1016.2 |
| 20260510151203 | 91 | 240 | 7.0 | 10.0 | 0.00 | 0.00 | 0.00 | 62 | 1016.2 |
| 20260510150704 | 91 | 229 | 7.0 | 12.0 | 0.00 | 0.00 | 0.00 | 62 | 1016.2 |
| 20260510150204 | 91 | 226 | 8.0 | 12.0 | 0.00 | 0.00 | 0.00 | 63 | 1016.2 |
| 20260510144703 | 90 | 242 | 9.0 | 10.0 | 0.00 | 0.00 | 0.00 | 64 | 1016.2 |
| 20260510143704 | 89 | 235 | 7.0 | 10.0 | 0.00 | 0.00 | 0.00 | 66 | 1016.2 |
| 20260510143205 | 88 | 260 | 7.0 | 12.0 | 0.00 | 0.00 | 0.00 | 67 | 1016.2 |
| 20260510141703 | 88 | 206 | 9.0 | 13.0 | 0.00 | 0.00 | 0.00 | 66 | 1016.2 |
| 20260510141204 | 87 | 203 | 8.0 | 13.0 | 0.00 | 0.00 | 0.00 | 68 | 1016.2 |
| 20260510140704 | 87 | 184 | 6.0 | 12.0 | 0.00 | 0.00 | 0.00 | 67 | 1016.2 |
| 20260510140204 | 87 | 201 | 8.0 | 12.0 | 0.00 | 0.00 | 0.00 | 67 | 1016.2 |
| 20260510134204 | 88 | 218 | 6.0 | 9.0 | 0.00 | 0.00 | 0.00 | 69 | 1016.2 |
| 20260510133704 | 89 | 223 | 8.0 | 10.0 | 0.00 | 0.00 | 0.00 | 69 | 1016.2 |
| 20260510133205 | 89 | 223 | 5.0 | 8.0 | 0.00 | 0.00 | 0.00 | 70 | 1016.2 |
| 20260510131704 | 86 | 228 | 3.0 | 6.0 | 0.00 | 0.00 | 0.00 | 78 | 1016.2 |
| 20260510131204 | 85 | 260 | 5.0 | 6.0 | 0.00 | 0.00 | 0.00 | 83 | 1016.2 |
| 20260510130705 | 83 | 239 | 3.0 | 6.0 | 0.00 | 0.00 | 0.00 | 86 | 1016.2 |
| 20260510130203 | 81 | 225 | 3.0 | 6.0 | 0.00 | 0.00 | 0.00 | 87 | 1016.2 |
| 20260510124703 | 79 | 184 | 4.0 | 7.0 | 0.00 | 0.00 | 0.00 | 88 | 1015.2 |
| 20260510124204 | 79 | 181 | 3.0 | 6.0 | 0.00 | 0.00 | 0.00 | 88 | 1016.0 |
| 20260510123704 | 79 | 186 | 3.0 | 6.0 | 0.00 | 0.00 | 0.00 | 88 | 1016.2 |
| 20260510123204 | 79 | 174 | 3.0 | 3.0 | 0.00 | 0.00 | 0.00 | 87 | 1016.2 |
| 20260510121704 | 79 | 213 | 2.0 | 6.0 | 0.00 | 0.00 | 0.00 | 89 | 1015.2 |
| 20260510121203 | 78 | 208 | 2.0 | 5.0 | 0.00 | 0.00 | 0.00 | 90 | 1015.2 |
| 20260510120704 | 78 | 192 | 0.0 | 3.0 | 0.00 | 0.00 | 0.00 | 90 | 1015.2 |
| 20260510120203 | 77 | 199 | 2.0 | 3.0 | 0.00 | 0.00 | 0.00 | 91 | 1015.2 |
| 20260510114705 | 77 | 218 | 0.0 | 3.0 | 0.00 | 0.00 | 0.00 | 93 | 1015.2 |
| 20260510114204 | 77 | 211 | 0.0 | 2.0 | 0.00 | 0.00 | 0.00 | 94 | 1015.2 |
| 20260510113704 | 76 | 210 | 0.0 | 2.0 | 0.00 | 0.00 | 0.00 | 94 | 1015.2 |
| 20260510113204 | 76 | 226 | 0.0 | 0.0 | 0.00 | 0.00 | 0.00 | 95 | 1015.2 |
| 20260510111704 | 75 | 231 | 0.0 | 2.0 | 0.00 | 0.00 | 0.00 | 95 | 1015.2 |
| 20260510111205 | 75 | 231 | 1.0 | 3.0 | 0.00 | 0.00 | 0.00 | 95 | 1015.2 |
| 20260510110204 | 75 | 240 | 0.0 | 2.0 | 0.00 | 0.00 | 0.00 | 95 | 1015.2 |
| 20260510104705 | 74 | 224 | 0.0 | 0.0 | 0.00 | 0.00 | 0.00 | 94 | 1014.2 |
| 20260510104204 | 74 | 214 | 0.0 | 0.0 | 0.00 | 0.00 | 0.00 | 94 | 1014.2 |
| 20260510103704 | 75 | 271 | 0.0 | 0.0 | 0.00 | 0.00 | 0.00 | 94 | 1014.2 |
| 20260510101704 | 75 | 280 | 0.0 | 0.0 | 0.00 | 0.00 | 0.00 | 93 | 1014.2 |
| 20260510101204 | 75 | 280 | 0.0 | 0.0 | 0.00 | 0.00 | 0.00 | 93 | 1014.2 |
| 20260510100704 | 75 | 280 | 0.0 | 0.0 | 0.00 | 0.00 | 0.00 | 93 | 1014.2 |
| 20260510100204 | 75 | 280 | 0.0 | 0.0 | 0.00 | 0.00 | 0.00 | 92 | 1014.2 |
| 20260510094204 | 75 | 280 | 0.0 | 0.0 | 0.00 | 0.00 | 0.00 | 92 | 1014.2 |
| 20260510093203 | 75 | 280 | 0.0 | 0.0 | 0.00 | 0.00 | 0.00 | 91 | 1014.2 |
| 20260510091704 | 75 | 280 | 0.0 | 0.0 | 0.00 | 0.00 | 0.00 | 91 | 1013.2 |
| 20260510091204 | 75 | 280 | 0.0 | 0.0 | 0.00 | 0.00 | 0.00 | 90 | 1013.2 |
| 20260510090703 | 75 | 265 | 0.0 | 3.0 | 0.00 | 0.00 | 0.00 | 90 | 1013.2 |
| 20260510090204 | 75 | 284 | 2.0 | 3.0 | 0.00 | 0.00 | 0.00 | 90 | 1013.2 |
| 20260510084705 | 75 | 326 | 0.0 | 0.0 | 0.00 | 0.00 | 0.00 | 89 | 1013.2 |
| 20260510083704 | 75 | 326 | 0.0 | 0.0 | 0.00 | 0.00 | 0.00 | 89 | 1013.2 |
| 20260510083204 | 75 | 308 | 0.0 | 0.0 | 0.00 | 0.00 | 0.00 | 88 | 1013.2 |
| 20260510080704 | 76 | 279 | 0.0 | 0.0 | 0.00 | 0.00 | 0.00 | 88 | 1013.2 |
| 20260510080204 | 76 | 279 | 0.0 | 0.0 | 0.00 | 0.00 | 0.00 | 88 | 1013.2 |
| 20260510074205 | 76 | 288 | 2.0 | 3.0 | 0.00 | 0.00 | 0.00 | 87 | 1013.2 |
| 20260510073703 | 76 | 299 | 0.0 | 3.0 | 0.00 | 0.00 | 0.00 | 87 | 1013.2 |
| 20260510073203 | 76 | 272 | 0.0 | 6.0 | 0.00 | 0.00 | 0.00 | 88 | 1013.2 |
| 20260510071704 | 76 | 239 | 3.0 | 6.0 | 0.00 | 0.00 | 0.00 | 88 | 1013.2 |
| 20260510071205 | 76 | 253 | 3.0 | 6.0 | 0.00 | 0.00 | 0.00 | 89 | 1013.2 |
| 20260510070205 | 76 | 242 | 1.0 | 6.0 | 0.00 | 0.00 | 0.00 | 90 | 1013.2 |
| 20260510064705 | 76 | 230 | 0.0 | 3.0 | 0.00 | 0.00 | 0.00 | 90 | 1013.2 |
| 20260510064203 | 77 | 226 | 0.0 | 3.0 | 0.00 | 0.00 | 0.00 | 91 | 1013.2 |
| 20260510063205 | 77 | 234 | 2.0 | 3.0 | 0.00 | 0.00 | 0.00 | 92 | 1013.2 |
| 20260510061703 | 77 | 231 | 0.0 | 0.0 | 0.00 | 0.00 | 0.00 | 93 | 1013.2 |
| 20260510061204 | 78 | 230 | 0.0 | 0.0 | 0.00 | 0.00 | 0.00 | 93 | 1013.9 |
| 20260510060705 | 78 | 76 | 0.0 | 0.0 | 0.00 | 0.00 | 0.00 | 93 | 1014.2 |
| 20260510060203 | 78 | 76 | 0.0 | 0.0 | 0.00 | 0.00 | 0.00 | 93 | 1014.2 |
| 20260510054704 | 78 | 76 | 0.0 | 0.0 | 0.00 | 0.00 | 0.00 | 93 | 1014.2 |
| 20260510054204 | 78 | 76 | 0.0 | 0.0 | 0.00 | 0.00 | 0.00 | 93 | 1014.2 |
| 20260510053704 | 78 | 76 | 0.0 | 0.0 | 0.00 | 0.00 | 0.00 | 93 | 1014.2 |
| 20260510053205 | 78 | 76 | 0.0 | 0.0 | 0.00 | 0.00 | 0.00 | 93 | 1014.2 |
| 20260510051704 | 78 | 76 | 0.0 | 0.0 | 0.00 | 0.00 | 0.00 | 93 | 1014.2 |
| 20260510051205 | 78 | 76 | 0.0 | 0.0 | 0.00 | 0.00 | 0.00 | 93 | 1014.2 |
| 20260510050205 | 78 | 76 | 0.0 | 0.0 | 0.00 | 0.00 | 0.00 | 93 | 1014.2 |
| 20260510044704 | 79 | 76 | 0.0 | 0.0 | 0.00 | 0.00 | 0.00 | 93 | 1014.2 |
| 20260510044206 | 79 | 76 | 0.0 | 0.0 | 0.00 | 0.00 | 0.00 | 93 | 1014.2 |
| 20260510043704 | 79 | 76 | 0.0 | 0.0 | 0.00 | 0.00 | 0.00 | 93 | 1014.2 |
| 20260510043205 | 79 | 76 | 0.0 | 0.0 | 0.00 | 0.00 | 0.00 | 94 | 1014.2 |
| 20260510041704 | 78 | 76 | 0.0 | 0.0 | 0.00 | 0.00 | 0.00 | 94 | 1014.2 |
| 20260510041205 | 78 | 72 | 0.0 | 0.0 | 0.00 | 0.00 | 0.00 | 94 | 1014.2 |
| 20260510040705 | 78 | 47 | 0.0 | 0.0 | 0.00 | 0.00 | 0.00 | 93 | 1014.2 |
| 20260510040205 | 79 | 46 | 0.0 | 3.0 | 0.00 | 0.00 | 0.00 | 92 | 1014.2 |
| 20260510034704 | 80 | 357 | 4.0 | 8.0 | 0.00 | 0.00 | 0.00 | 90 | 1014.2 |
| 20260510034205 | 80 | 0 | 2.0 | 6.0 | 0.00 | 0.00 | 0.00 | 88 | 1014.2 |
| 20260510033704 | 80 | 144 | 0.0 | 0.0 | 0.00 | 0.00 | 0.00 | 87 | 1014.2 |
| 20260510033204 | 80 | 144 | 0.0 | 3.0 | 0.00 | 0.00 | 0.00 | 87 | 1014.2 |
| 20260510031704 | 80 | 141 | 3.0 | 3.0 | 0.00 | 0.00 | 0.00 | 84 | 1014.2 |
| 20260510031204 | 80 | 152 | 0.0 | 0.0 | 0.00 | 0.00 | 0.00 | 83 | 1014.2 |
| 20260510030704 | 80 | 56 | 0.0 | 0.0 | 0.00 | 0.00 | 0.00 | 83 | 1014.2 |
| 20260510030204 | 81 | 38 | 0.0 | 8.0 | 0.00 | 0.00 | 0.00 | 81 | 1014.2 |
| 20260510024204 | 83 | 334 | 5.0 | 9.0 | 0.00 | 0.00 | 0.00 | 73 | 1013.6 |
| 20260510021203 | 83 | 200 | 5.0 | 8.0 | 0.00 | 0.00 | 0.00 | 73 | 1012.5 |
| 20260510020205 | 83 | 201 | 4.0 | 9.0 | 0.00 | 0.00 | 0.00 | 72 | 1012.2 |
| 20260510014704 | 83 | 199 | 7.0 | 9.0 | 0.00 | 0.00 | 0.00 | 72 | 1012.2 |
| 20260510014204 | 83 | 207 | 6.0 | 8.0 | 0.00 | 0.00 | 0.00 | 71 | 1012.2 |
| 20260510013704 | 83 | 179 | 6.0 | 9.0 | 0.00 | 0.00 | 0.00 | 71 | 1012.2 |
| 20260510013203 | 84 | 189 | 5.0 | 10.0 | 0.00 | 0.00 | 0.00 | 71 | 1012.2 |
| 20260510011204 | 84 | 167 | 6.0 | 9.0 | 0.00 | 0.00 | 0.00 | 70 | 1012.2 |
| 20260510010705 | 84 | 186 | 7.0 | 10.0 | 0.00 | 0.00 | 0.00 | 70 | 1012.2 |
| 20260510010204 | 84 | 194 | 7.0 | 9.0 | 0.00 | 0.00 | 0.00 | 70 | 1012.2 |
| 20260510004204 | 85 | 195 | 6.0 | 8.0 | 0.00 | 0.00 | 0.00 | 69 | 1011.5 |
| 20260510003704 | 85 | 178 | 6.0 | 9.0 | 0.00 | 0.00 | 0.00 | 68 | 1011.2 |
| 20260510003204 | 85 | 160 | 6.0 | 9.0 | 0.00 | 0.00 | 0.00 | 68 | 1011.2 |
| 20260510001704 | 85 | 192 | 7.0 | 8.0 | 0.00 | 0.00 | 0.00 | 68 | 1011.2 |
| 20260510001204 | 85 | 168 | 5.0 | 9.0 | 0.00 | 0.00 | 0.00 | 68 | 1011.2 |
| 20260510000704 | 86 | 160 | 5.0 | 7.0 | 0.00 | 0.00 | 0.00 | 68 | 1011.2 |
| 20260510000204 | 86 | 171 | 5.0 | 12.0 | 0.00 | 0.00 | 0.00 | 68 | 1011.2 |
| 20260509234205 | 86 | 165 | 7.0 | 12.0 | 0.00 | 0.00 | 0.00 | 69 | 1011.2 |
| 20260509233703 | 86 | 158 | 5.0 | 8.0 | 0.00 | 0.00 | 0.00 | 70 | 1011.2 |
| 20260509231704 | 87 | 149 | 4.0 | 8.0 | 0.00 | 0.00 | 0.00 | 70 | 1011.2 |
| 20260509231203 | 87 | 163 | 5.0 | 6.0 | 0.00 | 0.00 | 0.00 | 70 | 1011.2 |
| 20260509230704 | 87 | 178 | 5.0 | 6.0 | 0.00 | 0.00 | 0.00 | 70 | 1011.2 |
| 20260509224704 | 88 | 161 | 3.0 | 6.0 | 0.00 | 0.00 | 0.00 | 71 | 1010.2 |
| 20260509224205 | 88 | 147 | 5.0 | 8.0 | 0.00 | 0.00 | 0.00 | 70 | 1010.2 |
| 20260509223705 | 88 | 167 | 5.0 | 10.0 | 0.00 | 0.00 | 0.00 | 71 | 1010.2 |
| 20260509223204 | 88 | 125 | 5.0 | 8.0 | 0.00 | 0.00 | 0.00 | 71 | 1010.2 |
| 20260509221704 | 88 | 137 | 6.0 | 9.0 | 0.00 | 0.00 | 0.00 | 71 | 1010.2 |
| 20260509221204 | 88 | 146 | 6.0 | 10.0 | 0.00 | 0.00 | 0.00 | 71 | 1010.2 |
| 20260509220704 | 88 | 87 | 5.0 | 9.0 | 0.00 | 0.00 | 0.00 | 70 | 1010.2 |
| 20260509214704 | 89 | 114 | 7.0 | 9.0 | 0.00 | 0.00 | 0.00 | 69 | 1010.2 |
| 20260509214204 | 89 | 101 | 5.0 | 8.0 | 0.00 | 0.00 | 0.00 | 68 | 1010.2 |
| 20260509213204 | 90 | 118 | 6.0 | 9.0 | 0.00 | 0.00 | 0.00 | 66 | 1010.2 |
| 20260509211704 | 91 | 116 | 4.0 | 6.0 | 0.00 | 0.00 | 0.00 | 66 | 1010.2 |
| 20260509211204 | 91 | 112 | 2.0 | 9.0 | 0.00 | 0.00 | 0.00 | 65 | 1010.2 |
| 20260509210704 | 91 | 136 | 5.0 | 8.0 | 0.00 | 0.00 | 0.00 | 66 | 1010.2 |
| 20260509210203 | 91 | 122 | 5.0 | 8.0 | 0.00 | 0.00 | 0.00 | 66 | 1010.2 |
| 20260509204703 | 91 | 125 | 6.0 | 13.0 | 0.00 | 0.00 | 0.00 | 65 | 1010.2 |
| 20260509204203 | 92 | 162 | 5.0 | 8.0 | 0.00 | 0.00 | 0.00 | 63 | 1010.9 |
| 20260509203704 | 92 | 126 | 4.0 | 6.0 | 0.00 | 0.00 | 0.00 | 61 | 1011.2 |